Volver al catálogo

STARLINK-36495

ActivoComunicacionesVLEO
NORAD 67311·PAYLOAD·🇺🇸 United States

Lanzado Jan 4, 2026 desde Cape Canaveral Space Force Station

Loading…

Próximos Pases (próximas 24 horas)

TLE

ActualizadoSource: CelesTrak SupGP

Época: Sep 15, 2026, 03:46 UTC

1 67311C 26002G   26258.15743056  .00040766  00000+0  14761-2 0  2583
2 67311  43.0028 335.0654 0001427 262.9061 244.2367 15.27569004    11

Sigue STARLINK-36495 en tiempo real con AllMySat

Download on the App Store